Skip Page Navigation
NASA JPL Caltech
NASA Logo - Jet Propulsion Laboratory + View the NASA Portal
+ Center for Near-Earth Object Studies
JPL Home Earth Solar System Stars & Galaxies Technology
JPL Solar System Dynamics
BODIES ORBITS EPHEMERIDES TOOLS PHYSICAL DATA DISCOVERY FAQ SITE MAP
JPL Small-Body Database Browser
Search: [ help ]  
103330 (2000 AX69)
Classification: Main-belt Asteroid          SPK-ID: 2103330
Ephemeris | Orbit Diagram | Orbital Elements | Mission Design | Physical Parameters | Discovery Circumstances | Close-Approach Data ]

[ show orbit diagram ]
Orbital Elements at Epoch 2459200.5 (2020-Dec-17.0) TDB
Reference: JPL 29 (heliocentric ecliptic J2000)
 Element Value Uncertainty (1-sigma)   Units 
e .2392676494495359 2.5036e-08  
a 2.580800388690607 7.6779e-09 au
q 1.963298345990157 6.2295e-08 au
i 3.860534171819049 3.291e-06 deg
node 197.9109838005928 5.0374e-05 deg
peri 237.9853100595059 5.1049e-05 deg
M 24.16828315883455 8.7406e-06 deg
tp 2459098.834558771841
(2020-Sep-06.33455877)
3.6603e-05 TDB
period 1514.363209070499
4.15
6.7579e-06
1.85e-08
d
yr
n .2377236833566264 1.0609e-09 deg/d
Q 3.198302431391057 9.515e-09 au
  Orbit Determination Parameters
   # obs. used (total)      1567  
   data-arc span      7824 days (21.42 yr)  
   first obs. used      1999-10-12  
   last obs. used      2021-03-14  
   planetary ephem.      DE441  
   SB-pert. ephem.      SB441-N16  
   condition code      0  
   norm. resid. RMS      .47203  
   source      ORB  
   producer      Otto Matic  
   solution date      2021-Apr-13 15:46:15  

Additional Information
 Earth MOID = .981172 au 
 Jupiter MOID = 2.09625 au 
 T_jup = 3.381 
[ hide covariance matrix ]
Orbital Elements at Epoch 2457185.5 (2015-Jun-12.0) TDB
Reference: JPL 29 (heliocentric ecliptic J2000)
 Element Value Uncertainty (1-sigma)   Units 
e .2369081502931632 2.472e-08  
q 1.970634868511892 6.1231e-08 au
tp 2457580.656512848746
(2016-Jul-11.15651285)
3.5657e-05 TDB
node 197.9927755390206 5.0236e-05 deg
peri 237.3784762739199 5.0952e-05 deg
i 3.861230254587213 3.2988e-06 deg
  Orbit Determination Parameters
   # obs. used (total)      1567  
   data-arc span      7824 days (21.42 yr)  
   first obs. used      1999-10-12  
   last obs. used      2021-03-14  
   planetary ephem.      DE441  
   SB-pert. ephem.      SB441-N16  
   condition code      0  
   norm. resid. RMS      .47203  
   source      ORB  
   producer      Otto Matic  
   solution date      2021-Apr-13 15:46:15  

Additional Information
 Jupiter MOID = 2.09625 au 
 T_jup = 3.381 
Orbit Covariance (6×6)
  e q tp node peri i
e 6.110539836018089E-16 -1.507885807688794E-15 2.381473453462219E-13 9.159344695552352E-16 6.109840725763557E-14 -3.67524411794152E-16
q -1.507885807688794E-15 3.74925110696546E-15 -5.699358945536514E-13 -1.36782620169837E-15 -1.497288697659587E-13 8.239882968551279E-16
tp 2.381473453462219E-13 -5.699358945536514E-13 1.271391523461804E-9 1.113920362061447E-11 3.166874687541453E-10 -1.003384377355031E-12
node 9.159344695552352E-16 -1.36782620169837E-15 1.113920362061447E-11 2.523680566109766E-9 -2.515060632658682E-9 -6.720514070479892E-11
peri 6.109840725763557E-14 -1.497288697659587E-13 3.166874687541453E-10 -2.515060632658682E-9 2.59607131153463E-9 6.681885357412945E-11
i -3.67524411794152E-16 8.239882968551279E-16 -1.003384377355031E-12 -6.720514070479892E-11 6.681885357412945E-11 1.088193658540946E-11

Ephemeris | Orbit Diagram | Orbital Elements | Mission Design | Physical Parameters | Discovery Circumstances | Close-Approach Data ]

Physical Parameter Table
Parameter Symbol Value Units Sigma Reference Notes
absolute magnitude H 15.1   n/a MPO266361  

103330 (2000 AX69)          Discovered 2000-Jan-05 by LINEAR at Socorro
Reference: 20051019/Numbers.arcLast Updated: 2005-10-26

[ show close-approach data ]
Alternate Designations
 2000 AX69 = 2001 HD44 
Ephemeris | Orbit Diagram | Orbital Elements | Mission Design | Physical Parameters | Discovery Circumstances | Close-Approach Data ]
ABOUT SSD CREDITS/AWARDS PRIVACY/COPYRIGHT GLOSSARY LINKS
FirstGov 2021-Apr-20 23:59 UT
(server date/time)  
NASA Home Page
Site Manager:   Ryan S. Park
Webmaster  Alan B. Chamberlin